| time (UTC) | temp F | wind direction | speed MPH | gust MPH | rain 1hr in | rain 24hr in | rain mn in | humidity % | barometer mb |
| 20260504233718 | 71 | 278 | 8.0 | 20.0 | 0.00 | 0.00 | 0.00 | 50 | 1002.6 |
| 20260504232718 | 72 | 273 | 13.0 | 21.0 | 0.00 | 0.00 | 0.00 | 48 | 1002.3 |
| 20260504231717 | 72 | 273 | 12.0 | 22.0 | 0.00 | 0.00 | 0.00 | 51 | 1002.6 |
| 20260504230644 | 72 | 260 | 10.0 | 22.0 | 0.00 | 0.00 | 0.00 | 50 | 1002.6 |
| 20260504225541 | 72 | 259 | 10.0 | 20.0 | 0.00 | 0.00 | 0.00 | 50 | 1002.6 |
| 20260504224540 | 72 | 259 | 12.0 | 23.0 | 0.00 | 0.00 | 0.00 | 51 | 1002.6 |
| 20260504223539 | 72 | 270 | 13.0 | 23.0 | 0.00 | 0.00 | 0.00 | 52 | 1003.0 |
| 20260504222537 | 72 | 259 | 14.0 | 21.0 | 0.00 | 0.00 | 0.00 | 52 | 1003.0 |
| 20260504221536 | 72 | 269 | 13.0 | 22.0 | 0.00 | 0.00 | 0.00 | 54 | 1003.0 |
| 20260504220536 | 71 | 260 | 11.0 | 19.0 | 0.00 | 0.00 | 0.00 | 55 | 1003.3 |
| 20260504215504 | 70 | 261 | 6.0 | 16.0 | 0.00 | 0.00 | 0.00 | 59 | 1003.2 |
| 20260504214401 | 70 | 246 | 9.0 | 16.0 | 0.00 | 0.00 | 0.00 | 59 | 1003.3 |
| 20260504213400 | 70 | 243 | 5.0 | 27.0 | 0.00 | 0.00 | 0.00 | 61 | 1003.3 |
| 20260504212400 | 70 | 250 | 11.0 | 27.0 | 0.00 | 0.00 | 0.00 | 58 | 1003.3 |
| 20260504211359 | 74 | 257 | 14.0 | 27.0 | 0.00 | 0.00 | 0.00 | 51 | 1003.7 |
| 20260504210358 | 74 | 256 | 11.0 | 23.0 | 0.00 | 0.00 | 0.00 | 48 | 1003.4 |
| 20260504205357 | 73 | 261 | 12.0 | 24.0 | 0.00 | 0.00 | 0.00 | 51 | 1003.4 |
| 20260504204357 | 73 | 275 | 17.0 | 24.0 | 0.00 | 0.00 | 0.00 | 49 | 1003.7 |
| 20260504203324 | 73 | 268 | 15.0 | 26.0 | 0.00 | 0.00 | 0.00 | 51 | 1003.6 |
| 20260504202252 | 72 | 268 | 11.0 | 22.0 | 0.00 | 0.00 | 0.00 | 51 | 1004.0 |
| 20260504201251 | 74 | 288 | 12.0 | 20.0 | 0.00 | 0.00 | 0.00 | 49 | 1004.0 |
| 20260504200250 | 73 | 251 | 8.0 | 27.0 | 0.00 | 0.00 | 0.00 | 51 | 1004.3 |
| 20260504195249 | 73 | 270 | 12.0 | 27.0 | 0.00 | 0.00 | 0.00 | 51 | 1004.3 |
| 20260504194249 | 72 | 257 | 10.0 | 23.0 | 0.00 | 0.00 | 0.00 | 49 | 1004.6 |
| 20260504193248 | 73 | 276 | 14.0 | 22.0 | 0.00 | 0.00 | 0.00 | 48 | 1005.0 |
| 20260504192247 | 72 | 246 | 10.0 | 22.0 | 0.00 | 0.00 | 0.00 | 49 | 1004.6 |
| 20260504191247 | 72 | 271 | 9.0 | 19.0 | 0.00 | 0.00 | 0.00 | 49 | 1004.9 |
| 20260504190246 | 72 | 249 | 10.0 | 21.0 | 0.00 | 0.00 | 0.00 | 50 | 1005.3 |
| 20260504185245 | 72 | 258 | 11.0 | 21.0 | 0.00 | 0.00 | 0.00 | 47 | 1005.3 |
| 20260504184244 | 71 | 276 | 10.0 | 22.0 | 0.00 | 0.00 | 0.00 | 49 | 1005.3 |
| 20260504183243 | 71 | 252 | 7.0 | 19.0 | 0.00 | 0.00 | 0.00 | 48 | 1005.3 |
| 20260504182243 | 71 | 258 | 8.0 | 20.0 | 0.00 | 0.00 | 0.00 | 50 | 1005.6 |
| 20260504181242 | 70 | 247 | 8.0 | 19.0 | 0.00 | 0.00 | 0.00 | 50 | 1005.6 |
| 20260504180209 | 70 | 246 | 9.0 | 21.0 | 0.00 | 0.00 | 0.00 | 49 | 1005.6 |
| 20260504175209 | 71 | 275 | 12.0 | 21.0 | 0.00 | 0.00 | 0.00 | 48 | 1005.6 |
| 20260504174208 | 70 | 253 | 11.0 | 19.0 | 0.00 | 0.00 | 0.00 | 46 | 1005.9 |
| 20260504173207 | 70 | 254 | 9.0 | 19.0 | 0.00 | 0.00 | 0.00 | 46 | 1005.9 |
| 20260504172206 | 70 | 244 | 8.0 | 17.0 | 0.00 | 0.00 | 0.00 | 49 | 1005.8 |
| 20260504171206 | 69 | 235 | 8.0 | 17.0 | 0.00 | 0.00 | 0.00 | 52 | 1006.2 |
| 20260504170205 | 70 | 254 | 9.0 | 18.0 | 0.00 | 0.00 | 0.00 | 50 | 1006.2 |
| 20260504150849 | 64 | 275 | 10.0 | 15.0 | 0.00 | 0.00 | 0.00 | 56 | 1007.0 |
| 20260504140743 | 61 | 275 | 8.0 | 16.0 | 0.00 | 0.00 | 0.00 | 56 | 1007.3 |
| 20260504130735 | 58 | 279 | 10.0 | 15.0 | 0.00 | 0.00 | 0.00 | 59 | 1007.5 |
| 20260504081606 | 52 | 263 | 6.0 | 14.0 | 0.00 | 0.00 | 0.00 | 59 | 1008.3 |
| 20260504080605 | 51 | 262 | 6.0 | 14.0 | 0.00 | 0.00 | 0.00 | 60 | 1008.3 |
| 20260504050448 | 50 | 256 | 4.0 | 12.0 | 0.00 | 0.00 | 0.00 | 64 | 1010.8 |
| 20260504045447 | 50 | 239 | 5.0 | 11.0 | 0.00 | 0.00 | 0.00 | 64 | 1010.8 |
| 20260504044446 | 50 | 247 | 4.0 | 10.0 | 0.00 | 0.00 | 0.00 | 65 | 1010.8 |
| 20260504043445 | 49 | 249 | 4.0 | 10.0 | 0.00 | 0.00 | 0.00 | 65 | 1010.8 |
| 20260504042444 | 49 | 247 | 5.0 | 10.0 | 0.00 | 0.00 | 0.00 | 66 | 1011.1 |
| 20260504041444 | 49 | 247 | 4.0 | 10.0 | 0.00 | 0.00 | 0.00 | 66 | 1011.1 |
| 20260504040443 | 49 | 248 | 3.0 | 10.0 | 0.00 | 0.00 | 0.00 | 66 | 1011.4 |
| 20260504035441 | 49 | 236 | 5.0 | 8.0 | 0.00 | 0.00 | 0.00 | 66 | 1011.4 |
| 20260504034440 | 49 | 253 | 4.0 | 9.0 | 0.00 | 0.00 | 0.00 | 67 | 1011.4 |
| 20260504033439 | 50 | 242 | 3.0 | 9.0 | 0.00 | 0.00 | 0.00 | 67 | 1011.7 |
| 20260504032438 | 50 | 243 | 3.0 | 8.0 | 0.00 | 0.00 | 0.00 | 65 | 1011.7 |
| 20260504031438 | 51 | 242 | 2.0 | 7.0 | 0.00 | 0.00 | 0.00 | 65 | 1011.7 |
| 20260504030437 | 51 | 254 | 2.0 | 9.0 | 0.00 | 0.00 | 0.00 | 65 | 1011.7 |
| 20260504025436 | 51 | 252 | 4.0 | 9.0 | 0.00 | 0.00 | 0.00 | 64 | 1012.1 |
| 20260504024333 | 51 | 259 | 4.0 | 10.0 | 0.00 | 0.00 | 0.00 | 64 | 1012.1 |
| 20260504023332 | 51 | 263 | 5.0 | 10.0 | 0.00 | 0.00 | 0.00 | 64 | 1012.0 |
| 20260504022331 | 51 | 267 | 5.0 | 10.0 | 0.00 | 0.00 | 0.00 | 63 | 1012.0 |
| 20260504021331 | 51 | 258 | 4.0 | 12.0 | 0.00 | 0.00 | 0.00 | 62 | 1012.0 |
| 20260504020330 | 51 | 261 | 5.0 | 13.0 | 0.00 | 0.00 | 0.00 | 62 | 1012.0 |
| 20260504015329 | 51 | 267 | 5.0 | 11.0 | 0.00 | 0.00 | 0.00 | 62 | 1012.3 |
| 20260504014328 | 51 | 271 | 8.0 | 12.0 | 0.00 | 0.00 | 0.00 | 61 | 1012.3 |
| 20260504013327 | 52 | 276 | 7.0 | 14.0 | 0.00 | 0.00 | 0.00 | 62 | 1012.3 |
| 20260504012327 | 52 | 285 | 7.0 | 17.0 | 0.00 | 0.00 | 0.00 | 60 | 1012.3 |
| 20260504011326 | 52 | 293 | 12.0 | 20.0 | 0.00 | 0.00 | 0.00 | 59 | 1012.2 |
| 20260504010254 | 52 | 295 | 10.0 | 20.0 | 0.00 | 0.00 | 0.00 | 58 | 1012.2 |
| 20260504005253 | 53 | 309 | 13.0 | 20.0 | 0.00 | 0.00 | 0.00 | 55 | 1012.2 |
| 20260504004150 | 54 | 316 | 12.0 | 20.0 | 0.00 | 0.00 | 0.00 | 51 | 1011.9 |
| 20260504003149 | 55 | 287 | 9.0 | 16.0 | 0.00 | 0.00 | 0.00 | 46 | 1011.5 |
| 20260504002117 | 55 | 287 | 6.0 | 14.0 | 0.00 | 0.00 | 0.00 | 46 | 1011.5 |
| 20260504001116 | 56 | 284 | 8.0 | 17.0 | 0.00 | 0.00 | 0.00 | 44 | 1011.1 |
| 20260504000116 | 56 | 290 | 9.0 | 18.0 | 0.00 | 0.00 | 0.00 | 44 | 1011.1 |
| 20260503235044 | 57 | 288 | 7.0 | 18.0 | 0.00 | 0.00 | 0.00 | 44 | 1011.4 |
| 20260503234043 | 58 | 286 | 7.0 | 19.0 | 0.00 | 0.00 | 0.00 | 42 | 1011.4 |